Year,Month,Day,Hour,Minute,Value (Times are PST for temperature in C)
2015,08,19,00,00,17.80
2015,08,19,00,01,17.80
2015,08,19,00,02,17.80
2015,08,19,00,03,17.80
2015,08,19,00,04,17.80
2015,08,19,00,05,17.80
2015,08,19,00,06,17.80
2015,08,19,00,07,17.80
2015,08,19,00,08,17.80
2015,08,19,00,09,17.80
2015,08,19,00,10,17.80
2015,08,19,00,11,17.80
2015,08,19,00,12,17.80
2015,08,19,00,13,17.80
2015,08,19,00,14,17.80
2015,08,19,00,15,17.80
2015,08,19,00,16,17.80
2015,08,19,00,17,17.80
2015,08,19,00,18,17.80
2015,08,19,00,19,17.80
2015,08,19,00,20,17.70
2015,08,19,00,21,17.70
2015,08,19,00,22,17.70
2015,08,19,00,23,17.70
2015,08,19,00,24,17.70
2015,08,19,00,25,17.70
2015,08,19,00,26,17.60
2015,08,19,00,27,17.60
2015,08,19,00,28,17.60
2015,08,19,00,29,17.60
2015,08,19,00,30,17.60
2015,08,19,00,31,17.60
2015,08,19,00,32,17.60
2015,08,19,00,33,17.60
2015,08,19,00,34,17.60
2015,08,19,00,35,17.60
2015,08,19,00,36,17.70
2015,08,19,00,37,17.70
2015,08,19,00,38,17.80
2015,08,19,00,39,17.90
2015,08,19,00,40,18.00
2015,08,19,00,41,18.00
2015,08,19,00,42,18.10
2015,08,19,00,43,18.10
2015,08,19,00,44,18.20
2015,08,19,00,45,18.20
2015,08,19,00,46,18.30
2015,08,19,00,47,18.30
2015,08,19,00,48,18.40
2015,08,19,00,49,18.50
2015,08,19,00,50,18.50
2015,08,19,00,51,18.60
2015,08,19,00,52,18.60
2015,08,19,00,53,18.70
2015,08,19,00,54,18.70
2015,08,19,00,55,18.70
2015,08,19,00,56,18.70
2015,08,19,00,57,18.70
2015,08,19,00,58,18.60
2015,08,19,00,59,18.60
2015,08,19,01,00,18.60
2015,08,19,01,01,18.50
2015,08,19,01,02,18.50
2015,08,19,01,03,18.50
2015,08,19,01,04,18.40
2015,08,19,01,05,18.40
2015,08,19,01,06,18.30
2015,08,19,01,07,18.20
2015,08,19,01,08,18.20
2015,08,19,01,09,18.10
2015,08,19,01,10,18.00
2015,08,19,01,11,18.00
2015,08,19,01,12,18.00
2015,08,19,01,13,18.00
2015,08,19,01,14,18.00
2015,08,19,01,15,18.00
2015,08,19,01,16,18.10
2015,08,19,01,17,18.20
2015,08,19,01,18,18.20
2015,08,19,01,19,18.20
2015,08,19,01,20,18.20
2015,08,19,01,21,18.20
2015,08,19,01,22,18.30
2015,08,19,01,23,18.30
2015,08,19,01,24,18.40
2015,08,19,01,25,18.50
2015,08,19,01,26,18.50
2015,08,19,01,27,18.50
2015,08,19,01,28,18.50
2015,08,19,01,29,18.40
2015,08,19,01,30,18.40
2015,08,19,01,31,18.30
2015,08,19,01,32,18.30
2015,08,19,01,33,18.30
2015,08,19,01,34,18.20
2015,08,19,01,35,18.20
2015,08,19,01,36,18.20
2015,08,19,01,37,18.20
2015,08,19,01,38,18.20
2015,08,19,01,39,18.20
2015,08,19,01,40,18.20
2015,08,19,01,41,18.20
2015,08,19,01,42,18.20
2015,08,19,01,43,18.20
2015,08,19,01,44,18.20
2015,08,19,01,45,18.20
2015,08,19,01,46,18.20
2015,08,19,01,47,18.30
2015,08,19,01,48,18.40
2015,08,19,01,49,18.40
2015,08,19,01,50,18.50
2015,08,19,01,51,18.50
2015,08,19,01,52,18.50
2015,08,19,01,53,18.50
2015,08,19,01,54,18.50
2015,08,19,01,55,18.50
2015,08,19,01,56,18.50
2015,08,19,01,57,18.50
2015,08,19,01,58,18.50
2015,08,19,01,59,18.50
2015,08,19,02,00,18.50
2015,08,19,02,01,18.50
2015,08,19,02,02,18.50
2015,08,19,02,03,18.40
2015,08,19,02,04,18.40
2015,08,19,02,05,18.40
2015,08,19,02,06,18.40
2015,08,19,02,07,18.40
2015,08,19,02,08,18.40
2015,08,19,02,09,18.30
2015,08,19,02,10,18.30
2015,08,19,02,11,18.30
2015,08,19,02,12,18.20
2015,08,19,02,13,18.20
2015,08,19,02,14,18.20
2015,08,19,02,15,18.20
2015,08,19,02,16,18.20
2015,08,19,02,17,18.20
2015,08,19,02,18,18.10
2015,08,19,02,19,18.10
2015,08,19,02,20,18.10
2015,08,19,02,21,18.10
2015,08,19,02,22,18.00
2015,08,19,02,23,18.00
2015,08,19,02,24,17.90
2015,08,19,02,25,17.90
2015,08,19,02,26,17.80
2015,08,19,02,27,17.80
2015,08,19,02,28,17.70
2015,08,19,02,29,17.70
2015,08,19,02,30,17.60
2015,08,19,02,31,17.60
2015,08,19,02,32,17.50
2015,08,19,02,33,17.50
2015,08,19,02,34,17.40
2015,08,19,02,35,17.40
2015,08,19,02,36,17.30
2015,08,19,02,37,17.30
2015,08,19,02,38,17.20
2015,08,19,02,39,17.10
2015,08,19,02,40,17.10
2015,08,19,02,41,17.00
2015,08,19,02,42,16.90
2015,08,19,02,43,16.90
2015,08,19,02,44,16.80
2015,08,19,02,45,16.70
2015,08,19,02,46,16.70
2015,08,19,02,47,16.60
2015,08,19,02,48,16.50
2015,08,19,02,49,16.40
2015,08,19,02,50,16.40
2015,08,19,02,51,16.30
2015,08,19,02,52,16.30
2015,08,19,02,53,16.20
2015,08,19,02,54,16.20
2015,08,19,02,55,16.10
2015,08,19,02,56,16.10
2015,08,19,02,57,16.10
2015,08,19,02,58,16.10
2015,08,19,02,59,16.10
2015,08,19,03,00,16.10
2015,08,19,03,01,16.20
2015,08,19,03,02,16.20
2015,08,19,03,03,16.20
2015,08,19,03,04,16.20
2015,08,19,03,05,16.10
2015,08,19,03,06,16.10
2015,08,19,03,07,16.10
2015,08,19,03,08,16.10
2015,08,19,03,09,16.00
2015,08,19,03,10,16.00
2015,08,19,03,11,15.90
2015,08,19,03,12,15.90
2015,08,19,03,13,15.90
2015,08,19,03,14,15.90
2015,08,19,03,15,15.80
2015,08,19,03,16,15.80
2015,08,19,03,17,15.80
2015,08,19,03,18,15.80
2015,08,19,03,19,15.80
2015,08,19,03,20,15.80
2015,08,19,03,21,15.70
2015,08,19,03,22,15.70
2015,08,19,03,23,15.70
2015,08,19,03,24,15.70
2015,08,19,03,25,15.70
2015,08,19,03,26,15.60
2015,08,19,03,27,15.60
2015,08,19,03,28,15.60
2015,08,19,03,29,15.60
2015,08,19,03,30,15.60
2015,08,19,03,31,15.60
2015,08,19,03,32,15.60
2015,08,19,03,33,15.50
2015,08,19,03,34,15.50
2015,08,19,03,35,15.50
2015,08,19,03,36,15.40
2015,08,19,03,37,15.40
2015,08,19,03,38,15.40
2015,08,19,03,39,15.30
2015,08,19,03,40,15.30
2015,08,19,03,41,15.30
2015,08,19,03,42,15.20
2015,08,19,03,43,15.20
2015,08,19,03,44,15.20
2015,08,19,03,45,15.10
2015,08,19,03,46,15.10
2015,08,19,03,47,15.00
2015,08,19,03,48,15.00
2015,08,19,03,49,15.00
2015,08,19,03,50,14.90
2015,08,19,03,51,14.90
2015,08,19,03,52,14.80
2015,08,19,03,53,14.80
2015,08,19,03,54,14.70
2015,08,19,03,55,14.70
2015,08,19,03,56,14.70
2015,08,19,03,57,14.70
2015,08,19,03,58,14.70
2015,08,19,03,59,14.70
2015,08,19,04,00,14.60
2015,08,19,04,01,14.60
2015,08,19,04,02,14.60
2015,08,19,04,03,14.70
2015,08,19,04,04,14.70
2015,08,19,04,05,14.80
2015,08,19,04,06,14.80
2015,08,19,04,07,14.90
2015,08,19,04,08,14.90
2015,08,19,04,09,14.90
2015,08,19,04,10,14.90
2015,08,19,04,11,15.00
2015,08,19,04,12,15.00
2015,08,19,04,13,15.10
2015,08,19,04,14,15.10
2015,08,19,04,15,15.10
2015,08,19,04,16,15.10
2015,08,19,04,17,15.10
2015,08,19,04,18,15.10
2015,08,19,04,19,15.10
2015,08,19,04,20,15.10
2015,08,19,04,21,15.10
2015,08,19,04,22,15.00
2015,08,19,04,23,15.00
2015,08,19,04,24,15.00
2015,08,19,04,25,14.90
2015,08,19,04,26,14.90
2015,08,19,04,27,14.90
2015,08,19,04,28,14.90
2015,08,19,04,29,14.80
2015,08,19,04,30,14.80
2015,08,19,04,31,14.80
2015,08,19,04,32,14.70
2015,08,19,04,33,14.70
2015,08,19,04,34,14.70
2015,08,19,04,35,14.60
2015,08,19,04,36,14.60
2015,08,19,04,37,14.50
2015,08,19,04,38,14.40
2015,08,19,04,39,14.40
2015,08,19,04,40,14.30
2015,08,19,04,41,14.30
2015,08,19,04,42,14.30
2015,08,19,04,43,14.20
2015,08,19,04,44,14.20
2015,08,19,04,45,14.10
2015,08,19,04,46,14.10
2015,08,19,04,47,14.10
2015,08,19,04,48,14.10
2015,08,19,04,49,14.00
2015,08,19,04,50,14.00
2015,08,19,04,51,13.90
2015,08,19,04,52,13.90
2015,08,19,04,53,13.90
2015,08,19,04,54,13.90
2015,08,19,04,55,13.90
2015,08,19,04,56,13.80
2015,08,19,04,57,13.80
2015,08,19,04,58,13.80
2015,08,19,04,59,13.80
2015,08,19,05,00,13.80
2015,08,19,05,01,13.70
2015,08,19,05,02,13.70
2015,08,19,05,03,13.70
2015,08,19,05,04,13.60
2015,08,19,05,05,13.60
2015,08,19,05,06,13.60
2015,08,19,05,07,13.60
2015,08,19,05,08,13.60
2015,08,19,05,09,13.60
2015,08,19,05,10,13.60
2015,08,19,05,11,13.60
2015,08,19,05,12,13.60
2015,08,19,05,13,13.60
2015,08,19,05,14,13.60
2015,08,19,05,15,13.60
2015,08,19,05,16,13.60
2015,08,19,05,17,13.60
2015,08,19,05,18,13.60
2015,08,19,05,19,13.60
2015,08,19,05,20,13.60
2015,08,19,05,21,13.60
2015,08,19,05,22,13.60
2015,08,19,05,23,13.60
2015,08,19,05,24,13.70
2015,08,19,05,25,13.80
2015,08,19,05,26,13.80
2015,08,19,05,27,13.80
2015,08,19,05,28,13.80
2015,08,19,05,29,13.90
2015,08,19,05,30,13.90
2015,08,19,05,31,13.90
2015,08,19,05,32,13.90
2015,08,19,05,33,13.80
2015,08,19,05,34,13.80
2015,08,19,05,35,13.80
2015,08,19,05,36,13.80
2015,08,19,05,37,13.80
2015,08,19,05,38,13.70
2015,08,19,05,39,13.70
2015,08,19,05,40,13.70
2015,08,19,05,41,13.70
2015,08,19,05,42,13.70
2015,08,19,05,43,13.60
2015,08,19,05,44,13.60
2015,08,19,05,45,13.50
2015,08,19,05,46,13.50
2015,08,19,05,47,13.50
2015,08,19,05,48,13.40
2015,08,19,05,49,13.40
2015,08,19,05,50,13.40
2015,08,19,05,51,13.30
2015,08,19,05,52,13.30
2015,08,19,05,53,13.30
2015,08,19,05,54,13.30
2015,08,19,05,55,13.30
2015,08,19,05,56,13.30
2015,08,19,05,57,13.30
2015,08,19,05,58,13.30
2015,08,19,05,59,13.30
2015,08,19,06,00,13.30
2015,08,19,06,01,13.30
2015,08,19,06,02,13.30
2015,08,19,06,03,13.30
2015,08,19,06,04,13.30
2015,08,19,06,05,13.30
2015,08,19,06,06,13.30
2015,08,19,06,07,13.30
2015,08,19,06,08,13.30
2015,08,19,06,09,13.20
2015,08,19,06,10,13.20
2015,08,19,06,11,13.20
2015,08,19,06,12,13.20
2015,08,19,06,13,13.20
2015,08,19,06,14,13.20
2015,08,19,06,15,13.20
2015,08,19,06,16,13.20
2015,08,19,06,17,13.20
2015,08,19,06,18,13.20
2015,08,19,06,19,13.20
2015,08,19,06,20,13.20
2015,08,19,06,21,13.20
2015,08,19,06,22,13.20
2015,08,19,06,23,13.20
2015,08,19,06,24,13.20
2015,08,19,06,25,13.20
2015,08,19,06,26,13.20
2015,08,19,06,27,13.20
2015,08,19,06,28,13.20
2015,08,19,06,29,13.20
2015,08,19,06,30,13.20
2015,08,19,06,31,13.20
2015,08,19,06,32,13.20
2015,08,19,06,33,13.20
2015,08,19,06,34,13.20
2015,08,19,06,35,13.20
2015,08,19,06,36,13.30
2015,08,19,06,37,13.30
2015,08,19,06,38,13.30
2015,08,19,06,39,13.30
2015,08,19,06,40,13.30
2015,08,19,06,41,13.20
2015,08,19,06,42,13.20
2015,08,19,06,43,13.30
2015,08,19,06,44,13.30
2015,08,19,06,45,13.30
2015,08,19,06,46,13.30
2015,08,19,06,47,13.30
2015,08,19,06,48,13.30
2015,08,19,06,49,13.30
2015,08,19,06,50,13.30
2015,08,19,06,51,13.30
2015,08,19,06,52,13.30
2015,08,19,06,53,13.30
2015,08,19,06,54,13.30
2015,08,19,06,55,13.30
2015,08,19,06,56,13.30
2015,08,19,06,57,13.40
2015,08,19,06,58,13.40
2015,08,19,06,59,13.40
2015,08,19,07,00,13.40
2015,08,19,07,01,13.40
2015,08,19,07,02,13.40
2015,08,19,07,03,13.50
2015,08,19,07,04,13.60
2015,08,19,07,05,13.60
2015,08,19,07,06,13.70
2015,08,19,07,07,13.70
2015,08,19,07,08,13.80
2015,08,19,07,09,13.80
2015,08,19,07,10,13.80
2015,08,19,07,11,13.80
2015,08,19,07,12,13.90
2015,08,19,07,13,13.90
2015,08,19,07,14,13.90
2015,08,19,07,15,14.00
2015,08,19,07,16,14.00
2015,08,19,07,17,14.00
2015,08,19,07,18,14.10
2015,08,19,07,19,14.10
2015,08,19,07,20,14.10
2015,08,19,07,21,14.20
2015,08,19,07,22,14.20
2015,08,19,07,23,14.20
2015,08,19,07,24,14.30
2015,08,19,07,25,14.30
2015,08,19,07,26,14.30
2015,08,19,07,27,14.40
2015,08,19,07,28,14.50
2015,08,19,07,29,14.50
2015,08,19,07,30,14.60
2015,08,19,07,31,14.60
2015,08,19,07,32,14.70
2015,08,19,07,33,14.70
2015,08,19,07,34,14.80
2015,08,19,07,35,14.80
2015,08,19,07,36,14.90
2015,08,19,07,37,15.00
2015,08,19,07,38,15.00
2015,08,19,07,39,15.10
2015,08,19,07,40,15.10
2015,08,19,07,41,15.20
2015,08,19,07,42,15.30
2015,08,19,07,43,15.30
2015,08,19,07,44,15.40
2015,08,19,07,45,15.50
2015,08,19,07,46,15.60
2015,08,19,07,47,15.70
2015,08,19,07,48,15.80
2015,08,19,07,49,15.90
2015,08,19,07,50,16.00
2015,08,19,07,51,16.10
2015,08,19,07,52,16.20
2015,08,19,07,53,16.30
2015,08,19,07,54,16.30
2015,08,19,07,55,16.40
2015,08,19,07,56,16.50
2015,08,19,07,57,16.60
2015,08,19,07,58,16.70
2015,08,19,07,59,16.80
2015,08,19,08,00,16.90
2015,08,19,08,01,17.00
2015,08,19,08,02,17.00
2015,08,19,08,03,17.10
2015,08,19,08,04,17.20
2015,08,19,08,05,17.30
2015,08,19,08,06,17.30
2015,08,19,08,07,17.30
2015,08,19,08,08,17.40
2015,08,19,08,09,17.50
2015,08,19,08,10,17.50
2015,08,19,08,11,17.60
2015,08,19,08,12,17.70
2015,08,19,08,13,17.80
2015,08,19,08,14,17.90
2015,08,19,08,15,18.00
2015,08,19,08,16,18.10
2015,08,19,08,17,18.10
2015,08,19,08,18,18.20
2015,08,19,08,19,18.30
2015,08,19,08,20,18.40
2015,08,19,08,21,18.50
2015,08,19,08,22,18.60
2015,08,19,08,23,18.70
2015,08,19,08,24,18.80
2015,08,19,08,25,18.80
2015,08,19,08,26,18.90
2015,08,19,08,27,19.00
2015,08,19,08,28,19.00
2015,08,19,08,29,19.10
2015,08,19,08,30,19.20
2015,08,19,08,31,19.20
2015,08,19,08,32,19.30
2015,08,19,08,33,19.30
2015,08,19,08,34,19.40
2015,08,19,08,35,19.40
2015,08,19,08,36,19.50
2015,08,19,08,37,19.50
2015,08,19,08,38,19.60
2015,08,19,08,39,19.70
2015,08,19,08,40,19.70
2015,08,19,08,41,19.80
2015,08,19,08,42,19.80
2015,08,19,08,43,19.80
2015,08,19,08,44,19.80
2015,08,19,08,45,19.80
2015,08,19,08,46,19.80
2015,08,19,08,47,19.80
2015,08,19,08,48,19.80
2015,08,19,08,49,19.80
2015,08,19,08,50,19.80
2015,08,19,08,51,19.80
2015,08,19,08,52,19.90
2015,08,19,08,53,19.90
2015,08,19,08,54,19.80
2015,08,19,08,55,19.80
2015,08,19,08,56,19.80
2015,08,19,08,57,19.90
2015,08,19,08,58,19.90
2015,08,19,08,59,20.00
2015,08,19,09,00,20.00
2015,08,19,09,01,20.00
2015,08,19,09,02,20.10
2015,08,19,09,03,20.20
2015,08,19,09,04,20.20
2015,08,19,09,05,20.30
2015,08,19,09,06,20.30
2015,08,19,09,07,20.30
2015,08,19,09,08,20.40
2015,08,19,09,09,20.40
2015,08,19,09,10,20.50
2015,08,19,09,11,20.40
2015,08,19,09,12,20.40
2015,08,19,09,13,20.40
2015,08,19,09,14,20.40
2015,08,19,09,15,20.40
2015,08,19,09,16,20.40
2015,08,19,09,17,20.40
2015,08,19,09,18,20.50
2015,08,19,09,19,20.60
2015,08,19,09,20,20.60
2015,08,19,09,21,20.70
2015,08,19,09,22,20.70
2015,08,19,09,23,20.70
2015,08,19,09,24,20.70
2015,08,19,09,25,20.80
2015,08,19,09,26,20.80
2015,08,19,09,27,20.90
2015,08,19,09,28,21.00
2015,08,19,09,29,21.00
2015,08,19,09,30,21.00
2015,08,19,09,31,21.00
2015,08,19,09,32,21.00
2015,08,19,09,33,20.90
2015,08,19,09,34,20.80
2015,08,19,09,35,20.80
2015,08,19,09,36,20.80
2015,08,19,09,37,20.90
2015,08,19,09,38,20.90
2015,08,19,09,39,21.00
2015,08,19,09,40,21.00
2015,08,19,09,41,21.00
2015,08,19,09,42,21.00
2015,08,19,09,43,21.00
2015,08,19,09,44,21.10
2015,08,19,09,45,21.10
2015,08,19,09,46,21.10
2015,08,19,09,47,21.20
2015,08,19,09,48,21.20
2015,08,19,09,49,21.20
2015,08,19,09,50,21.20
2015,08,19,09,51,21.20
2015,08,19,09,52,21.20
2015,08,19,09,53,21.20
2015,08,19,09,54,21.20
2015,08,19,09,55,21.30
2015,08,19,09,56,21.30
2015,08,19,09,57,21.40
2015,08,19,09,58,21.40
2015,08,19,09,59,21.50
2015,08,19,10,00,21.50
2015,08,19,10,01,21.40
2015,08,19,10,02,21.40
2015,08,19,10,03,21.40
2015,08,19,10,04,21.40
2015,08,19,10,05,21.30
2015,08,19,10,06,21.20
2015,08,19,10,07,21.10
2015,08,19,10,08,21.10
2015,08,19,10,09,21.00
2015,08,19,10,10,21.00
2015,08,19,10,11,21.00
2015,08,19,10,12,21.00
2015,08,19,10,13,21.00
2015,08,19,10,14,21.10
2015,08,19,10,15,21.10
2015,08,19,10,16,21.10
2015,08,19,10,17,21.10
2015,08,19,10,18,21.10
2015,08,19,10,19,21.20
2015,08,19,10,20,21.20
2015,08,19,10,21,21.20
2015,08,19,10,22,21.20
2015,08,19,10,23,21.20
2015,08,19,10,24,21.10
2015,08,19,10,25,21.20
2015,08,19,10,26,21.20
2015,08,19,10,27,21.20
2015,08,19,10,28,21.20
2015,08,19,10,29,21.20
2015,08,19,10,30,21.20
2015,08,19,10,31,21.10
2015,08,19,10,32,21.10
2015,08,19,10,33,21.10
2015,08,19,10,34,21.00
2015,08,19,10,35,21.00
2015,08,19,10,36,21.10
2015,08,19,10,37,21.20
2015,08,19,10,38,21.20
2015,08,19,10,39,21.30
2015,08,19,10,40,21.30
2015,08,19,10,41,21.30
2015,08,19,10,42,21.30
2015,08,19,10,43,21.30
2015,08,19,10,44,21.40
2015,08,19,10,45,21.40
2015,08,19,10,46,21.40
2015,08,19,10,47,21.40
2015,08,19,10,48,21.50
2015,08,19,10,49,21.50
2015,08,19,10,50,21.50
2015,08,19,10,51,21.60
2015,08,19,10,52,21.60
2015,08,19,10,53,21.60
2015,08,19,10,54,21.60
2015,08,19,10,55,21.60
2015,08,19,10,56,21.60
2015,08,19,10,57,21.70
2015,08,19,10,58,21.70
2015,08,19,10,59,21.70
2015,08,19,11,00,21.70
2015,08,19,11,01,21.70
2015,08,19,11,02,21.60
2015,08,19,11,03,21.60
2015,08,19,11,04,21.60
2015,08,19,11,05,21.50
2015,08,19,11,06,21.50
2015,08,19,11,07,21.50
2015,08,19,11,08,21.50
2015,08,19,11,09,21.60
2015,08,19,11,10,21.70
2015,08,19,11,11,21.70
2015,08,19,11,12,21.80
2015,08,19,11,13,21.80
2015,08,19,11,14,21.70
2015,08,19,11,15,21.80
2015,08,19,11,16,21.80
2015,08,19,11,17,21.80
2015,08,19,11,18,21.80
2015,08,19,11,19,21.80
2015,08,19,11,20,21.80
2015,08,19,11,21,21.80
2015,08,19,11,22,21.80
2015,08,19,11,23,21.70
2015,08,19,11,24,21.70
2015,08,19,11,25,21.70
2015,08,19,11,26,21.70
2015,08,19,11,27,21.70
2015,08,19,11,28,21.70
2015,08,19,11,29,21.70
2015,08,19,11,30,21.70
2015,08,19,11,31,21.70
2015,08,19,11,32,21.80
2015,08,19,11,33,21.80
2015,08,19,11,34,21.80
2015,08,19,11,35,21.80
2015,08,19,11,36,21.80
2015,08,19,11,37,21.80
2015,08,19,11,38,21.80
2015,08,19,11,39,21.90
2015,08,19,11,40,21.90
2015,08,19,11,41,21.90
2015,08,19,11,42,21.90
2015,08,19,11,43,22.00
2015,08,19,11,44,22.00
2015,08,19,11,45,22.00
2015,08,19,11,46,22.00
2015,08,19,11,47,22.00
2015,08,19,11,48,22.10
2015,08,19,11,49,22.10
2015,08,19,11,50,22.10
2015,08,19,11,51,22.10
2015,08,19,11,52,22.10
2015,08,19,11,53,22.10
2015,08,19,11,54,22.10
2015,08,19,11,55,22.20
2015,08,19,11,56,22.20
2015,08,19,11,57,22.30
2015,08,19,11,58,22.30
2015,08,19,11,59,22.40
2015,08,19,12,00,22.40
2015,08,19,12,01,22.40
2015,08,19,12,02,22.40
2015,08,19,12,03,22.40
2015,08,19,12,04,22.30
2015,08,19,12,05,22.30
2015,08,19,12,06,22.40
2015,08,19,12,07,22.50
2015,08,19,12,08,22.50
2015,08,19,12,09,22.50
2015,08,19,12,10,22.60
2015,08,19,12,11,22.60
2015,08,19,12,12,22.70
2015,08,19,12,13,22.80
2015,08,19,12,14,22.90
2015,08,19,12,15,22.90
2015,08,19,12,16,23.00
2015,08,19,12,17,23.10
2015,08,19,12,18,23.10
2015,08,19,12,19,23.10
2015,08,19,12,20,23.10
2015,08,19,12,21,23.10
2015,08,19,12,22,23.00
2015,08,19,12,23,23.00
2015,08,19,12,24,23.10
2015,08,19,12,25,23.00
2015,08,19,12,26,23.00
2015,08,19,12,27,23.00
2015,08,19,12,28,22.90
2015,08,19,12,29,22.90
2015,08,19,12,30,23.00
2015,08,19,12,31,23.10
2015,08,19,12,32,23.20
2015,08,19,12,33,23.30
2015,08,19,12,34,23.40
2015,08,19,12,35,23.60
2015,08,19,12,36,23.70
2015,08,19,12,37,23.70
2015,08,19,12,38,23.60
2015,08,19,12,39,23.60
2015,08,19,12,40,23.70
2015,08,19,12,41,23.70
2015,08,19,12,42,23.70
2015,08,19,12,43,23.80
2015,08,19,12,44,23.90
2015,08,19,12,45,23.90
2015,08,19,12,46,23.90
2015,08,19,12,47,23.90
2015,08,19,12,48,23.80
2015,08,19,12,49,23.60
2015,08,19,12,50,23.50
2015,08,19,12,51,23.50
2015,08,19,12,52,23.60
2015,08,19,12,53,23.70
2015,08,19,12,54,23.80
2015,08,19,12,55,23.90
2015,08,19,12,56,24.00
2015,08,19,12,57,24.10
2015,08,19,12,58,24.10
2015,08,19,12,59,24.00
2015,08,19,13,00,23.90
2015,08,19,13,01,23.90
2015,08,19,13,02,23.90
2015,08,19,13,03,23.90
2015,08,19,13,04,23.90
2015,08,19,13,05,23.90
2015,08,19,13,06,24.00
2015,08,19,13,07,24.10
2015,08,19,13,08,24.10
2015,08,19,13,09,24.20
2015,08,19,13,10,24.20
2015,08,19,13,11,24.30
2015,08,19,13,12,24.30
2015,08,19,13,13,24.30
2015,08,19,13,14,24.30
2015,08,19,13,15,24.40
2015,08,19,13,16,24.40
2015,08,19,13,17,24.30
2015,08,19,13,18,24.30
2015,08,19,13,19,24.30
2015,08,19,13,20,24.20
2015,08,19,13,21,24.30
2015,08,19,13,22,24.30
2015,08,19,13,23,24.30
2015,08,19,13,24,24.30
2015,08,19,13,25,24.40
2015,08,19,13,26,24.40
2015,08,19,13,27,24.40
2015,08,19,13,28,24.40
2015,08,19,13,29,24.20
2015,08,19,13,30,24.10
2015,08,19,13,31,24.00
2015,08,19,13,32,23.90
2015,08,19,13,33,23.90
2015,08,19,13,34,23.90
2015,08,19,13,35,23.90
2015,08,19,13,36,23.90
2015,08,19,13,37,23.90
2015,08,19,13,38,24.00
2015,08,19,13,39,24.00
2015,08,19,13,40,24.10
2015,08,19,13,41,24.20
2015,08,19,13,42,24.30
2015,08,19,13,43,24.40
2015,08,19,13,44,24.50
2015,08,19,13,45,24.60
2015,08,19,13,46,24.70
2015,08,19,13,47,24.80
2015,08,19,13,48,24.80
2015,08,19,13,49,24.90
2015,08,19,13,50,24.90
2015,08,19,13,51,25.00
2015,08,19,13,52,25.10
2015,08,19,13,53,25.20
2015,08,19,13,54,25.40
2015,08,19,13,55,25.40
2015,08,19,13,56,25.50
2015,08,19,13,57,25.60
2015,08,19,13,58,25.80
2015,08,19,13,59,25.80
2015,08,19,14,00,25.80
2015,08,19,14,01,25.80
2015,08,19,14,02,25.80
2015,08,19,14,03,25.70
2015,08,19,14,04,25.60
2015,08,19,14,05,25.60
2015,08,19,14,06,25.50
2015,08,19,14,07,25.50
2015,08,19,14,08,25.50
2015,08,19,14,09,25.60
2015,08,19,14,10,25.60
2015,08,19,14,11,25.60
2015,08,19,14,12,25.50
2015,08,19,14,13,25.40
2015,08,19,14,14,25.30
2015,08,19,14,15,25.20
2015,08,19,14,16,25.20
2015,08,19,14,17,25.10
2015,08,19,14,18,25.10
2015,08,19,14,19,25.10
2015,08,19,14,20,25.10
2015,08,19,14,21,25.10
2015,08,19,14,22,25.10
2015,08,19,14,23,25.10
2015,08,19,14,24,25.10
2015,08,19,14,25,25.10
2015,08,19,14,26,25.10
2015,08,19,14,27,25.10
2015,08,19,14,28,25.00
2015,08,19,14,29,25.00
2015,08,19,14,30,24.90
2015,08,19,14,31,24.90
2015,08,19,14,32,24.80
2015,08,19,14,33,24.80
2015,08,19,14,34,24.80
2015,08,19,14,35,24.70
2015,08,19,14,36,24.80
2015,08,19,14,37,24.80
2015,08,19,14,38,24.80
2015,08,19,14,39,24.80
2015,08,19,14,40,24.80
2015,08,19,14,41,24.80
2015,08,19,14,42,24.90
2015,08,19,14,43,24.90
2015,08,19,14,44,25.00
2015,08,19,14,45,25.00
2015,08,19,14,46,25.10
2015,08,19,14,47,25.10
2015,08,19,14,48,25.10
2015,08,19,14,49,25.10
2015,08,19,14,50,25.10
2015,08,19,14,51,25.20
2015,08,19,14,52,25.20
2015,08,19,14,53,25.20
2015,08,19,14,54,25.20
2015,08,19,14,55,25.20
2015,08,19,14,56,25.10
2015,08,19,14,57,25.10
2015,08,19,14,58,25.20
2015,08,19,14,59,25.30
2015,08,19,15,00,25.40
2015,08,19,15,01,25.50
2015,08,19,15,02,25.60
2015,08,19,15,03,25.60
2015,08,19,15,04,25.60
2015,08,19,15,05,25.70
2015,08,19,15,06,25.70
2015,08,19,15,07,25.70
2015,08,19,15,08,25.70
2015,08,19,15,09,25.80
2015,08,19,15,10,25.90
2015,08,19,15,11,25.90
2015,08,19,15,12,25.80
2015,08,19,15,13,25.80
2015,08,19,15,14,25.80
2015,08,19,15,15,25.90
2015,08,19,15,16,26.00
2015,08,19,15,17,26.00
2015,08,19,15,18,26.00
2015,08,19,15,19,26.00
2015,08,19,15,20,25.90
2015,08,19,15,21,25.90
2015,08,19,15,22,25.80
2015,08,19,15,23,25.90
2015,08,19,15,24,25.90
2015,08,19,15,25,26.00
2015,08,19,15,26,26.10
2015,08,19,15,27,26.10
2015,08,19,15,28,26.10
2015,08,19,15,29,26.00
2015,08,19,15,30,25.90
2015,08,19,15,31,25.80
2015,08,19,15,32,25.80
2015,08,19,15,33,25.80
2015,08,19,15,34,25.80
2015,08,19,15,35,25.80
2015,08,19,15,36,25.80
2015,08,19,15,37,25.90
2015,08,19,15,38,26.00
2015,08,19,15,39,26.10
2015,08,19,15,40,26.20
2015,08,19,15,41,26.30
2015,08,19,15,42,26.40
2015,08,19,15,43,26.40
2015,08,19,15,44,26.30
2015,08,19,15,45,26.30
2015,08,19,15,46,26.20
2015,08,19,15,47,26.10
2015,08,19,15,48,26.10
2015,08,19,15,49,25.90
2015,08,19,15,50,25.90
2015,08,19,15,51,25.80
2015,08,19,15,52,25.90
2015,08,19,15,53,25.90
2015,08,19,15,54,25.90
2015,08,19,15,55,25.80
2015,08,19,15,56,25.80
2015,08,19,15,57,25.80
2015,08,19,15,58,25.80
2015,08,19,15,59,25.70
2015,08,19,16,00,25.50
2015,08,19,16,01,25.40
2015,08,19,16,02,25.30
2015,08,19,16,03,25.20
2015,08,19,16,04,25.20
2015,08,19,16,05,25.20
2015,08,19,16,06,25.30
2015,08,19,16,07,25.30
2015,08,19,16,08,25.30
2015,08,19,16,09,25.30
2015,08,19,16,10,25.20
2015,08,19,16,11,25.20
2015,08,19,16,12,25.10
2015,08,19,16,13,25.10
2015,08,19,16,14,25.00
2015,08,19,16,15,24.90
2015,08,19,16,16,24.90
2015,08,19,16,17,24.90
2015,08,19,16,18,25.00
2015,08,19,16,19,25.00
2015,08,19,16,20,25.00
2015,08,19,16,21,25.00
2015,08,19,16,22,25.00
2015,08,19,16,23,25.00
2015,08,19,16,24,24.90
2015,08,19,16,25,24.90
2015,08,19,16,26,24.80
2015,08,19,16,27,24.70
2015,08,19,16,28,24.70
2015,08,19,16,29,24.60
2015,08,19,16,30,24.60
2015,08,19,16,31,24.60
2015,08,19,16,32,24.60
2015,08,19,16,33,24.60
2015,08,19,16,34,24.60
2015,08,19,16,35,24.60
2015,08,19,16,36,24.70
2015,08,19,16,37,24.70
2015,08,19,16,38,24.80
2015,08,19,16,39,24.80
2015,08,19,16,40,24.90
2015,08,19,16,41,24.90
2015,08,19,16,42,24.90
2015,08,19,16,43,24.80
2015,08,19,16,44,24.70
2015,08,19,16,45,24.60
2015,08,19,16,46,24.60
2015,08,19,16,47,24.60
2015,08,19,16,48,24.70
2015,08,19,16,49,24.80
2015,08,19,16,50,24.80
2015,08,19,16,51,24.80
2015,08,19,16,52,24.80
2015,08,19,16,53,24.70
2015,08,19,16,54,24.70
2015,08,19,16,55,24.70
2015,08,19,16,56,24.60
2015,08,19,16,57,24.50
2015,08,19,16,58,24.40
2015,08,19,16,59,24.30
2015,08,19,17,00,24.30
2015,08,19,17,01,24.30
2015,08,19,17,02,24.40
2015,08,19,17,03,24.40
2015,08,19,17,04,24.50
2015,08,19,17,05,24.50
2015,08,19,17,06,24.40
2015,08,19,17,07,24.30
2015,08,19,17,08,24.30
2015,08,19,17,09,24.20
2015,08,19,17,10,24.30
2015,08,19,17,11,24.20
2015,08,19,17,12,24.20
2015,08,19,17,13,24.20
2015,08,19,17,14,24.30
2015,08,19,17,15,24.30
2015,08,19,17,16,24.30
2015,08,19,17,17,24.40
2015,08,19,17,18,24.40
2015,08,19,17,19,24.40